Theta_e
311 311 310 311 311 311 311 311 311 311 311 310 309 306 305 304 304 304 303 303 302 302 302 302 302 302 302 304 304 305 307 308 310 312 315 320 315 315 314 316 316 319 324 330 345 353 354 352 351 351 349 351 352 349 350 351 353 360 366 366 361 361 358 358 360 347 344 355 357 356 357 360 360 358 356 355 355 356 355 354 355 353 353 353 352 351 351 350
311 311 311 311 311 311 311 311 310 311 310 309 308 306 305 304 304 304 304 303 303 302 302 303 302 302 303 303 305 307 309 310 313 316 321 317 317 316 314 314 314 319 327 337 349 352 353 352 350 352 350 351 354 352 353 353 355 361 364 364 363 363 358 353 354 349 348 354 356 356 357 358 359 358 356 359 359 356 356 355 356 356 354 352 352 352 351 350
311 311 310 311 311 311 311 310 310 310 308 305 305 305 305 305 305 305 305 304 304 303 303 303 302 303 303 304 306 309 312 315 320 325 321 318 322 320 318 315 314 319 325 334 341 347 351 350 349 354 352 353 357 355 355 357 359 360 360 363 363 358 353 351 350 349 347 352 357 357 356 357 357 356 355 359 358 356 358 357 358 359 355 353 352 352 352 350
311 310 310 310 310 310 310 310 309 308 306 305 305 305 305 305 305 305 305 305 305 304 304 303 303 303 303 305 307 310 314 321 324 319 319 322 323 322 325 318 315 319 323 327 334 344 348 347 349 352 354 357 357 357 357 358 360 361 361 363 360 354 353 352 352 352 346 350 356 356 357 358 355 355 355 357 358 359 357 355 357 358 355 354 352 352 352 350
310 310 310 310 310 310 310 310 309 308 306 306 305 305 304 304 305 305 305 305 305 305 304 304 304 304 305 307 310 315 317 321 317 318 321 324 320 320 328 321 318 322 325 330 338 344 346 346 349 350 355 359 357 357 359 357 356 358 360 361 357 356 356 352 350 350 346 350 356 356 356 357 355 355 354 356 361 361 355 352 353 354 354 353 352 352 351 350
310 310 310 310 310 310 310 309 308 307 306 305 304 304 304 304 304 305 305 305 305 305 305 305 304 304 306 308 313 317 320 313 316 319 320 324 317 319 328 322 321 326 327 333 340 342 345 346 349 352 354 357 357 357 357 354 354 357 357 355 354 355 356 351 347 347 348 352 355 355 355 355 356 356 354 355 358 357 353 351 351 352 352 352 352 351 351 350
310 310 310 310 309 309 309 309 308 307 306 306 305 305 304 304 304 305 305 306 306 306 307 307 305 305 307 311 317 319 321 316 317 318 318 319 316 321 326 322 324 328 329 334 339 342 345 347 351 353 353 356 357 355 354 352 352 356 355 351 350 351 352 349 346 346 349 355 353 353 356 356 357 357 355 354 355 355 353 350 351 351 352 352 352 351 350 350
310 310 310 310 309 308 308 308 307 306 306 306 306 305 304 304 304 305 306 306 307 307 309 308 307 307 306 312 320 319 319 320 315 316 317 316 319 322 322 323 328 329 332 336 339 341 344 347 350 352 354 357 356 353 353 353 353 354 353 351 349 348 348 347 347 346 347 351 352 354 357 357 354 356 356 354 354 355 352 350 351 352 351 352 351 350 351 351
310 310 310 310 309 309 308 307 306 305 306 305 305 304 304 305 305 306 307 307 308 308 309 310 309 308 308 315 321 313 314 317 314 318 319 319 321 319 319 324 328 330 335 338 337 341 344 347 348 350 353 353 351 352 353 355 356 353 352 351 349 348 347 345 345 347 347 345 349 354 357 355 353 356 358 354 354 353 351 351 352 352 351 352 351 351 352 351
310 310 310 309 309 309 308 307 305 305 305 304 304 304 304 305 306 307 307 307 308 308 309 310 310 310 312 319 320 312 315 316 317 322 321 322 321 319 321 321 325 330 334 335 336 340 342 344 346 346 347 344 343 347 350 352 353 350 349 349 349 348 346 345 344 346 347 342 346 354 355 354 352 356 359 356 355 352 351 353 352 353 352 352 351 351 352 351
310 310 310 309 308 308 308 307 305 305 304 304 305 305 305 306 307 307 307 308 309 309 310 310 311 311 314 321 318 310 316 317 319 323 320 322 323 320 321 320 324 329 331 331 333 337 338 340 342 342 344 342 338 340 345 347 346 345 345 344 343 341 339 340 341 344 346 342 344 351 352 352 350 351 357 357 353 351 353 355 353 354 353 352 352 352 353 352
310 309 309 309 308 309 308 307 305 304 304 305 305 305 306 307 307 308 311 312 313 312 311 311 312 312 317 322 319 311 313 318 321 324 324 326 326 323 321 320 323 326 327 329 330 333 335 336 337 339 342 342 340 340 341 340 340 340 340 338 336 333 330 332 335 339 344 342 342 346 348 351 350 350 357 356 353 353 353 355 354 354 353 353 353 352 353 352
309 309 309 309 309 309 308 307 305 304 304 305 305 306 306 306 310 314 316 318 318 315 311 312 313 313 318 321 316 312 312 318 320 319 322 322 320 322 324 324 325 326 325 326 328 329 331 332 334 337 336 338 341 339 337 336 336 337 335 332 331 329 328 330 334 340 346 341 339 344 342 346 350 351 361 357 352 354 354 355 355 354 354 353 353 353 353 352
309 309 309 308 308 309 308 306 304 304 304 305 306 306 307 310 315 317 317 318 317 313 312 313 314 314 320 317 311 314 311 313 315 313 316 315 313 320 326 327 327 326 325 325 326 327 328 327 328 331 329 332 336 333 333 333 332 335 334 330 329 325 326 332 335 338 343 338 339 344 336 341 348 349 359 355 352 355 355 355 354 354 355 353 354 353 353 353
309 308 308 308 308 308 308 305 304 304 303 305 307 306 309 315 317 315 315 315 314 314 315 316 316 317 320 317 313 318 316 313 314 313 313 314 316 322 326 328 329 328 326 325 324 325 326 325 325 328 328 330 330 327 331 333 331 332 330 328 327 322 325 332 330 332 337 335 337 341 334 338 341 346 356 354 352 356 354 356 355 354 355 354 355 354 353 353
308 307 307 307 308 307 306 304 304 303 303 306 306 307 313 318 315 313 314 313 312 314 316 318 318 321 323 316 315 319 322 320 318 318 316 315 316 321 324 326 330 330 328 326 325 325 325 325 328 329 328 329 329 328 329 330 331 334 330 325 324 321 323 328 329 332 337 336 335 337 338 340 339 346 356 355 353 356 355 356 355 354 355 354 354 354 353 353
307 307 306 306 306 306 304 304 304 303 304 306 306 311 317 317 315 315 316 315 315 317 318 320 318 322 323 313 316 320 320 322 322 323 323 320 315 317 323 326 328 328 327 326 325 326 326 327 330 330 327 327 331 331 324 321 327 332 327 322 322 323 321 323 328 332 336 338 335 335 336 343 350 353 356 355 354 355 356 356 355 355 354 355 354 354 354 354
307 306 306 306 306 305 304 303 303 303 305 306 307 314 320 319 318 319 320 320 321 321 322 322 318 322 320 315 319 321 319 321 322 323 325 324 318 316 322 325 326 328 327 327 327 327 327 328 329 331 329 327 330 328 320 320 328 330 325 321 322 323 322 322 325 328 333 338 338 336 333 341 358 357 354 356 354 355 357 355 355 355 354 355 354 354 354 353
307 306 306 307 306 304 303 303 303 303 305 307 308 314 319 319 320 321 320 320 321 322 324 326 322 319 317 318 318 319 319 319 321 322 324 325 320 316 318 322 325 328 329 329 328 327 327 328 327 328 329 327 328 325 322 327 332 332 328 325 322 321 323 325 325 327 331 334 338 339 331 337 360 360 355 355 354 355 356 356 355 355 355 354 354 354 354 354
307 307 307 307 305 304 304 303 303 304 305 306 309 312 313 313 318 320 315 312 313 314 316 321 323 322 320 319 318 319 319 319 322 323 324 324 319 315 317 320 324 326 328 330 328 326 327 329 327 327 328 328 327 325 326 331 331 329 327 324 322 320 321 324 326 328 328 332 340 346 335 337 358 361 356 355 355 356 355 356 356 355 355 355 355 354 354 354
306 306 306 305 304 303 304 303 303 305 305 305 309 310 308 308 312 313 308 308 309 310 311 312 316 319 320 318 318 319 319 320 322 321 322 323 319 317 319 320 323 324 326 329 326 324 327 329 328 327 328 329 329 327 328 329 328 328 326 322 321 319 320 323 324 325 326 329 335 342 338 337 354 359 357 356 355 356 355 356 356 355 355 355 355 355 354 353
305 305 305 304 304 304 304 302 303 305 304 305 309 310 308 306 308 308 306 309 310 309 311 311 312 314 314 316 317 317 318 320 320 318 320 321 318 320 321 319 321 322 324 327 326 323 325 327 328 327 329 330 330 329 327 327 326 325 324 320 318 319 320 323 324 325 325 324 329 338 334 336 352 358 357 356 356 355 354 355 355 355 355 355 355 354 354 354
304 304 304 304 304 303 303 302 303 304 302 305 307 308 307 306 307 307 306 309 311 310 311 311 311 312 312 313 314 316 317 317 318 318 320 322 320 321 321 318 320 323 324 326 326 324 322 324 328 327 327 329 329 328 326 326 326 324 322 318 316 319 319 320 325 328 326 325 334 341 338 344 358 360 359 356 355 356 353 353 354 353 355 354 354 354 353 354
304 304 304 304 304 303 303 302 304 303 302 304 307 307 307 306 307 308 309 312 313 312 312 312 312 312 313 313 313 316 316 316 317 318 320 322 321 321 320 319 320 322 323 325 325 325 323 324 327 327 327 328 327 327 328 326 324 324 324 320 319 321 320 321 325 329 327 326 336 339 335 349 363 360 361 358 354 356 354 355 355 353 354 353 353 353 353 353
303 304 304 303 304 303 302 302 304 303 303 305 307 306 306 306 307 308 310 315 316 313 313 313 312 313 313 314 314 315 316 317 317 317 320 323 321 322 321 319 320 321 322 323 324 325 325 324 325 325 326 327 326 327 327 326 323 324 325 325 324 323 323 324 325 325 321 321 333 333 324 339 360 357 359 359 357 358 356 355 356 354 354 353 354 354 353 353
303 303 303 303 303 302 303 304 304 304 305 306 306 306 306 306 308 308 310 315 319 316 315 315 314 314 314 314 315 316 317 318 317 317 321 323 321 322 322 320 320 321 322 324 324 323 324 324 324 325 325 326 327 326 325 326 323 321 326 328 326 325 323 323 322 320 317 319 332 333 323 331 346 350 356 359 359 359 357 356 355 354 355 353 353 352 352 353
303 303 303 303 303 303 305 306 304 304 306 306 307 307 307 308 308 309 312 318 322 320 317 315 314 315 314 314 315 317 319 318 317 317 320 323 322 321 323 322 321 321 322 324 322 322 325 324 323 324 324 324 325 323 325 327 322 321 328 330 328 327 325 324 321 318 320 323 326 330 330 325 327 339 352 357 359 359 358 357 354 354 354 353 353 352 352 352
303 303 303 303 303 303 304 305 305 305 306 306 307 307 308 309 309 311 314 321 326 323 319 315 314 315 313 314 315 316 318 317 317 318 318 321 322 321 323 322 320 321 322 322 319 321 325 324 323 323 323 323 322 323 326 326 323 324 328 329 327 327 325 325 322 319 323 321 314 321 329 321 323 342 351 353 358 358 358 357 354 353 353 352 352 351 351 351
303 303 303 303 303 303 304 305 305 305 306 306 307 308 309 309 310 313 316 322 324 320 318 315 314 313 312 314 315 315 315 314 316 316 317 321 321 321 322 322 321 322 322 321 320 323 324 323 323 323 322 322 322 324 326 324 324 327 326 327 326 324 326 328 325 319 320 318 313 317 323 317 322 341 345 345 353 355 356 357 353 352 352 351 352 351 350 351
303 303 303 303 303 303 304 305 305 305 305 306 307 308 309 311 313 316 321 324 321 318 317 316 315 313 313 314 314 314 314 314 316 315 317 320 321 321 321 322 323 323 322 322 322 324 325 324 324 323 323 323 323 325 325 324 325 326 326 326 323 325 326 330 332 323 315 315 314 316 321 317 317 329 339 342 349 353 354 354 352 351 350 350 350 350 349 349
303 302 303 303 303 304 305 306 304 305 306 306 308 310 310 313 317 321 325 322 317 319 319 318 316 314 316 315 313 314 314 313 315 316 318 319 321 322 321 321 322 321 321 321 322 323 324 324 326 326 325 323 324 324 323 324 324 324 327 323 321 326 324 319 322 320 314 314 315 317 323 319 313 322 338 342 343 348 350 351 351 351 350 349 349 348 348 349
302 302 303 303 303 304 305 306 304 305 306 306 309 313 311 311 315 318 321 318 316 318 318 317 315 315 316 315 315 316 315 315 315 316 317 317 320 322 321 322 321 319 318 318 319 321 322 324 325 326 327 324 323 324 322 323 323 323 327 321 317 322 320 314 316 317 316 316 319 321 320 316 316 328 344 343 339 341 344 347 348 348 349 347 347 348 347 347
302 302 303 303 303 304 304 305 304 304 306 308 311 315 313 313 316 316 316 316 316 315 315 315 316 316 316 316 317 316 314 315 315 316 316 317 321 322 322 323 322 322 321 318 317 318 318 321 323 322 325 325 324 323 319 321 324 322 322 319 317 319 317 317 319 318 317 317 321 323 319 317 319 331 342 340 338 339 338 342 344 345 348 346 345 346 346 346
302 302 303 303 304 305 304 304 304 304 307 309 313 315 314 315 318 318 316 316 315 314 315 316 316 316 317 317 316 315 314 315 315 316 318 319 320 321 322 322 321 324 327 320 316 317 316 318 323 321 322 326 324 323 323 325 324 321 323 322 318 320 319 318 318 317 318 320 321 320 319 319 320 328 338 333 334 339 336 337 340 342 344 344 343 344 344 346
302 302 303 303 305 304 303 304 304 305 308 311 313 315 314 313 316 318 318 317 316 315 316 316 315 316 318 318 315 315 316 316 315 315 317 320 320 321 323 322 322 324 324 319 317 318 315 317 324 322 322 325 325 324 325 325 322 320 324 322 317 320 320 317 320 321 319 317 318 319 323 330 331 333 341 333 331 338 336 336 338 338 341 340 341 343 342 344
302 302 302 303 305 303 303 304 304 305 309 312 313 314 313 312 314 316 317 316 316 316 316 317 317 317 320 320 317 316 316 316 316 315 315 319 320 321 322 322 322 322 321 320 320 319 314 317 324 321 321 325 325 326 324 323 323 321 319 318 319 323 319 315 318 319 315 313 319 321 323 330 331 332 342 337 332 338 338 337 336 335 338 338 338 341 341 342
302 303 303 303 304 303 303 304 304 306 310 313 315 315 313 311 313 316 316 315 315 316 317 319 320 318 318 320 317 315 316 317 317 316 316 318 318 318 320 322 321 320 321 320 321 322 318 318 324 321 321 322 322 326 324 323 325 321 316 318 320 322 321 320 317 315 314 315 318 320 319 322 321 328 346 344 335 339 338 338 338 335 336 336 336 338 338 341
303 303 304 304 303 303 304 304 304 308 313 315 316 318 317 315 315 315 315 315 316 317 317 318 320 317 316 318 318 314 316 318 318 317 318 319 317 315 316 320 319 317 318 318 320 324 320 316 320 322 322 321 321 323 322 322 323 320 320 322 322 318 316 319 319 316 316 316 317 319 322 322 319 326 342 341 338 342 339 339 339 337 337 336 335 336 336 338
303 304 306 304 302 303 304 304 306 310 315 316 316 317 317 316 316 315 315 316 317 317 316 317 317 316 316 317 316 314 315 317 318 317 318 318 317 316 314 315 317 316 317 319 320 324 321 317 318 322 322 321 321 320 317 318 321 321 321 320 322 320 316 316 318 317 317 317 317 317 318 318 323 335 343 343 345 343 338 341 341 338 338 337 335 336 335 336
303 304 306 303 302 304 304 306 310 314 317 317 317 316 314 314 315 315 315 316 316 316 316 316 316 316 316 315 314 315 316 318 319 318 318 316 316 316 313 313 315 315 316 319 321 323 322 319 317 320 321 318 319 320 318 319 319 318 318 316 316 318 317 316 316 316 317 317 317 317 312 315 330 345 344 345 351 346 339 341 341 339 339 337 337 337 336 336
303 304 305 302 303 304 305 309 312 313 315 314 313 311 310 312 314 313 311 312 313 314 315 315 314 315 314 314 314 316 318 319 320 319 317 316 316 317 314 312 313 314 319 326 328 326 327 322 315 315 316 314 318 322 321 322 322 319 318 317 315 316 316 315 315 316 315 316 320 319 310 314 335 346 342 346 352 349 344 340 339 340 339 338 338 337 338 338
303 303 304 302 303 303 306 309 308 308 310 309 308 308 308 310 311 310 309 309 310 312 312 312 313 314 313 314 316 316 318 320 321 320 318 316 315 315 313 312 312 315 321 327 328 327 329 327 318 315 318 318 322 324 321 321 323 322 322 320 319 319 315 313 314 316 315 316 322 321 313 318 339 344 341 349 354 348 344 339 339 340 337 338 340 337 339 340
303 303 303 302 303 303 307 309 307 306 307 307 306 307 307 309 309 309 309 308 309 310 311 312 312 312 313 314 315 315 316 319 319 318 318 316 314 312 312 311 312 316 323 327 328 326 328 329 322 318 322 323 322 324 323 323 322 319 321 322 319 319 317 315 319 322 318 314 317 319 313 318 341 350 340 342 347 343 340 338 338 339 337 338 339 339 341 342
303 303 304 304 303 304 307 307 306 306 307 307 306 306 307 307 308 308 308 309 309 309 310 311 311 311 311 313 315 315 315 318 319 315 314 315 315 313 312 312 312 315 321 326 327 324 326 331 324 317 318 317 317 321 321 321 321 321 322 323 320 320 320 317 322 322 317 314 316 316 312 321 352 361 341 337 340 340 340 340 338 338 338 339 340 341 343 345
303 304 305 304 303 304 306 305 305 305 306 306 305 305 306 307 307 308 308 308 308 307 308 310 310 310 311 312 314 314 313 315 317 315 311 312 315 313 312 313 312 313 319 323 322 321 326 334 327 319 319 317 316 321 322 320 322 322 323 323 321 321 319 316 318 316 316 320 318 314 317 333 354 351 337 337 339 340 341 341 338 340 340 340 344 345 346 349
303 303 304 304 303 305 305 304 304 305 305 306 305 305 305 307 307 307 308 308 307 307 307 309 309 309 310 311 313 313 312 312 314 315 313 312 313 312 312 313 312 314 320 320 318 321 328 335 331 324 325 323 322 326 328 325 322 321 321 322 321 323 320 317 315 313 319 325 317 317 327 331 332 334 336 340 340 339 341 342 343 349 347 343 345 346 347 349
304 303 303 304 304 305 305 304 304 305 305 305 306 306 306 306 307 307 308 307 307 307 307 308 308 309 309 310 312 312 312 312 312 313 312 312 312 311 311 313 313 316 319 316 316 323 328 331 330 327 327 326 324 324 324 323 324 323 323 322 320 322 323 318 314 316 327 323 313 324 337 324 322 337 342 341 342 340 343 343 341 346 348 343 341 343 345 347
304 304 304 304 305 305 304 303 304 305 305 305 305 306 306 306 306 307 308 307 306 307 308 309 308 308 308 308 310 313 313 313 313 313 312 312 313 312 312 313 312 314 315 312 315 321 325 328 328 325 323 322 321 322 322 322 324 324 324 322 320 321 320 317 316 323 328 319 312 327 338 326 329 344 341 342 345 341 342 342 336 339 346 347 348 346 344 344
304 304 304 304 304 305 304 303 304 305 304 305 306 306 306 306 306 306 307 306 306 307 308 309 309 308 308 308 310 313 314 312 313 314 313 313 313 312 314 315 313 312 311 311 313 317 323 330 329 322 321 322 320 321 322 322 323 323 323 323 320 320 320 318 321 323 325 322 321 331 336 331 333 338 338 343 344 340 343 343 338 343 350 353 355 350 343 341
304 304 304 304 304 304 304 304 304 305 304 305 306 306 305 306 306 305 306 306 307 307 307 308 308 307 308 308 309 311 311 311 312 312 312 313 312 313 315 315 313 312 310 312 314 316 321 327 326 321 322 323 322 322 322 320 321 322 323 324 322 320 320 318 320 322 322 323 324 328 332 333 333 336 339 339 336 332 333 336 340 345 348 352 355 351 347 344
303 303 303 304 304 304 305 305 305 305 305 304 306 306 304 305 305 305 305 306 307 307 306 306 307 307 307 308 309 310 309 308 310 310 310 311 311 312 313 313 312 311 312 314 314 316 320 324 325 323 324 326 323 321 320 319 321 323 323 326 325 321 320 319 320 324 323 322 324 322 322 327 334 337 335 333 334 334 333 336 340 342 346 352 355 356 359 354
303 303 303 303 304 304 305 305 305 304 305 305 305 305 304 304 304 304 306 307 306 306 306 306 306 307 307 308 309 309 308 308 308 308 308 308 309 310 310 311 311 311 313 314 314 318 320 322 323 324 326 329 324 319 320 321 324 323 320 324 326 322 323 322 321 325 325 322 323 320 319 326 333 334 333 332 332 331 331 334 334 338 350 360 358 357 360 355
Wind_Speed
23 22 23 23 23 24 24 25 25 25 24 24 24 24 23 23 24 25 24 24 24 22 22 22 22 22 22 22 21 19 20 20 20 12 9 22 31 29 24 19 11 12 19 17 24 26 17 14 16 19 15 8 4 4 6 4 3 3 2 2 4 3 3 4 4 3 3 4 8 9 11 12 10 7 3 5 4 5 7 2 4 4 5 10 17 25 28 28
24 24 24 24 24 25 26 26 25 25 25 25 26 26 26 26 26 26 26 25 24 23 23 22 22 21 21 21 19 18 18 19 17 13 21 27 26 27 28 26 19 15 21 25 30 27 16 12 14 15 9 5 4 5 6 4 4 4 2 2 5 4 3 3 3 4 1 5 8 8 9 10 11 9 6 6 6 9 8 3 5 6 8 12 20 27 27 27
25 24 24 25 26 26 27 26 26 26 26 28 28 28 28 28 28 28 27 26 24 23 23 22 21 20 20 19 16 15 15 13 10 12 18 15 11 17 21 24 22 20 21 26 31 29 21 17 18 13 7 5 3 6 8 5 5 4 2 3 6 5 5 4 5 7 3 7 9 7 7 7 8 8 5 7 9 10 9 7 8 7 10 13 17 23 25 26
25 25 25 26 26 26 27 26 26 27 27 29 29 29 29 30 29 29 29 26 25 24 23 22 20 19 19 16 13 12 10 7 5 7 6 3 8 9 14 23 24 23 21 25 29 28 24 20 18 11 6 5 3 5 7 6 5 4 5 6 5 3 4 6 6 7 3 8 9 7 7 6 6 6 5 10 10 7 9 11 14 15 16 16 17 19 23 23
25 26 25 26 27 27 27 26 27 28 28 30 30 31 31 32 32 30 29 27 26 24 23 22 18 18 17 12 10 9 4 3 5 5 3 6 15 16 11 24 27 26 22 25 25 25 23 17 13 9 5 4 5 5 6 9 5 3 8 9 7 5 5 4 3 2 2 5 8 9 8 7 6 5 8 14 12 8 11 14 14 17 20 20 20 20 20 20
26 26 25 26 27 27 27 27 28 29 30 31 32 33 34 34 32 30 30 28 27 24 23 20 16 16 15 9 5 3 1 3 7 4 4 12 21 17 9 27 30 28 24 25 23 20 17 13 10 8 5 4 7 7 5 9 9 6 6 9 10 8 9 5 2 0 5 5 7 9 8 7 8 7 9 15 11 4 7 11 12 15 20 22 21 20 20 19
26 26 26 26 27 28 28 28 29 30 32 33 34 35 36 35 33 32 31 29 27 24 22 18 14 14 11 4 1 1 1 7 15 13 12 18 19 9 15 30 31 29 24 23 20 15 13 12 11 8 6 4 5 7 5 6 9 10 8 8 9 8 10 8 4 3 6 8 9 7 7 10 13 8 8 14 9 0 6 10 13 14 17 21 19 19 20 19
27 27 27 27 27 29 30 31 32 33 34 35 36 37 37 36 34 33 31 29 26 22 20 16 13 11 6 1 1 2 1 13 24 18 16 15 7 6 24 30 29 28 25 24 20 14 13 12 12 7 5 6 4 5 5 5 7 11 10 8 7 6 9 9 6 5 5 8 7 7 9 13 14 7 9 16 9 3 10 12 13 15 16 18 18 19 18 17
27 27 27 28 29 31 32 33 36 36 36 38 40 40 39 38 35 33 30 27 24 21 19 14 11 7 2 1 1 3 6 13 17 12 12 9 4 16 29 29 30 28 24 25 23 18 13 10 12 7 4 6 4 2 5 5 5 8 10 8 9 10 10 9 7 7 7 6 7 10 11 12 9 5 7 13 7 6 12 13 14 16 17 17 17 18 17 17
29 27 28 29 30 32 33 35 38 38 40 42 43 41 41 39 35 32 29 27 24 22 19 12 9 4 4 3 3 4 8 5 5 3 7 8 11 21 27 28 33 28 20 19 19 17 11 9 12 6 1 2 4 4 5 5 3 5 7 9 11 12 11 9 8 8 8 6 10 13 13 13 8 5 7 7 8 10 13 14 15 16 17 17 16 16 16 16
29 28 29 30 31 33 34 37 40 41 43 45 44 43 41 37 33 32 30 28 24 22 16 9 8 8 7 4 5 6 6 2 2 5 3 8 14 23 26 28 34 28 21 14 14 21 16 13 13 5 2 2 2 3 5 6 5 7 7 10 11 10 10 9 9 7 6 6 13 15 12 9 6 6 8 6 10 13 14 14 15 15 14 15 17 15 13 13
29 29 30 31 33 33 34 38 41 43 45 45 44 43 39 35 34 32 28 24 21 18 12 10 11 12 8 2 8 15 8 4 6 10 10 8 8 15 21 28 33 29 24 14 13 25 20 17 17 7 5 4 2 1 3 5 4 7 6 8 10 8 9 10 7 5 7 6 10 10 2 4 9 11 7 9 11 13 14 14 14 14 13 12 14 13 11 12
29 30 31 32 33 33 34 38 43 45 46 46 45 40 36 35 32 25 20 18 14 10 10 13 14 15 7 1 10 18 15 11 7 4 6 6 4 7 14 23 29 26 25 20 20 27 21 17 19 10 5 4 2 2 2 2 1 5 3 4 6 6 8 7 1 4 6 6 10 11 1 6 14 10 8 11 13 14 13 14 14 13 11 11 11 11 11 13
31 31 32 33 32 33 35 39 45 46 47 47 42 37 36 31 23 18 15 11 6 6 10 14 16 14 5 7 9 10 15 17 16 19 21 17 11 9 10 17 24 22 19 17 15 21 21 15 11 5 2 2 2 3 5 3 2 3 4 2 2 2 7 5 3 4 1 4 13 13 5 8 12 9 10 12 15 16 14 14 13 12 11 11 11 11 11 12
33 33 34 34 34 35 37 43 47 46 48 45 37 35 31 21 15 13 9 4 3 10 13 14 15 10 1 9 11 8 11 14 19 26 25 15 10 9 12 17 21 22 18 11 5 8 16 11 3 1 3 3 1 4 4 4 2 1 2 4 2 2 7 8 2 4 3 4 12 13 5 6 7 10 12 13 15 16 15 14 14 13 13 13 12 12 11 11
34 35 36 35 37 39 41 47 47 47 48 40 35 32 21 12 11 10 10 11 10 14 14 10 9 6 1 5 5 3 6 8 13 20 20 17 16 12 15 16 14 17 14 8 6 8 13 9 3 3 3 2 3 3 2 3 4 1 2 4 4 2 5 7 5 3 3 3 8 11 6 3 4 9 12 13 16 15 13 14 15 14 13 13 12 11 11 10
35 36 36 36 39 42 46 48 46 49 46 35 34 25 9 6 8 10 14 16 14 14 10 5 8 4 4 5 3 3 5 7 9 7 8 17 21 16 14 10 6 11 8 5 6 7 7 6 2 3 2 2 4 5 3 6 6 2 1 3 4 4 3 4 6 5 1 4 7 11 9 4 2 9 14 14 16 15 13 14 15 14 13 12 12 11 11 12
33 35 35 37 40 43 48 47 47 49 40 33 32 16 4 4 5 8 10 12 10 7 5 2 6 2 4 4 2 3 2 3 5 5 4 9 18 20 14 7 6 9 7 4 4 5 3 2 3 2 3 5 5 6 7 6 5 4 3 3 4 4 4 6 5 4 3 1 6 9 11 8 4 6 13 15 17 16 15 15 14 14 13 12 11 12 12 13
33 34 34 37 40 46 49 46 48 45 33 32 27 8 5 5 1 1 2 4 3 2 0 2 6 1 3 4 4 6 6 5 6 7 6 8 14 18 12 5 7 10 6 2 3 5 4 1 3 5 5 7 8 9 9 4 5 7 6 4 4 4 6 6 5 5 3 3 6 7 10 11 5 7 11 13 16 15 13 12 11 11 12 11 11 11 12 14
33 34 35 38 42 48 48 46 48 36 27 34 24 6 6 7 3 3 5 5 5 7 7 6 8 6 8 6 1 4 7 6 5 3 6 10 15 13 6 3 5 5 5 6 4 4 6 4 6 8 7 8 8 9 8 5 4 5 4 3 5 5 7 6 5 5 2 2 6 6 8 10 7 8 11 13 13 13 12 12 12 13 12 12 13 13 14 15
36 36 38 41 45 49 46 48 42 24 25 31 19 7 4 5 3 4 8 11 11 10 13 14 13 14 15 10 2 3 5 3 4 4 5 10 16 13 5 5 6 4 5 7 5 2 5 9 10 9 8 7 8 8 8 7 6 6 5 4 6 6 8 8 5 6 2 2 7 6 5 8 7 8 9 11 14 14 15 15 15 16 15 13 14 16 15 13
38 39 42 44 47 48 47 47 32 17 27 27 13 6 3 4 5 6 6 9 12 10 14 16 15 17 19 21 17 5 2 4 8 9 7 10 11 9 6 8 9 7 6 6 5 3 6 9 9 9 8 7 7 8 9 9 8 6 5 4 6 5 5 7 6 5 2 3 7 7 7 7 5 8 9 13 16 16 17 19 20 20 18 15 15 16 15 12
41 42 44 44 47 48 48 42 22 17 31 26 9 3 4 7 12 9 4 6 12 10 12 14 14 15 15 18 18 11 7 7 7 9 11 14 7 7 8 10 11 8 7 9 8 7 6 7 8 10 9 9 7 7 9 7 6 6 5 5 6 4 2 4 5 4 2 4 4 3 4 5 2 5 9 13 14 11 12 15 14 15 17 18 18 17 15 15
42 43 43 45 47 47 47 33 16 22 34 22 4 2 7 15 17 12 3 4 8 7 10 14 11 10 12 10 12 16 11 8 7 8 13 18 7 5 9 10 11 9 9 13 13 10 7 6 7 12 11 11 9 6 8 6 5 6 6 7 7 4 4 5 4 5 4 3 2 1 3 6 2 6 8 10 11 9 9 11 10 10 13 14 13 13 14 15
43 43 43 46 45 48 43 21 12 28 33 13 4 3 18 23 20 13 3 2 6 5 6 8 5 5 9 8 12 15 6 5 10 8 11 17 11 6 6 6 8 10 13 13 11 9 9 5 6 12 10 11 11 8 8 8 6 6 9 11 9 5 4 4 2 5 5 5 3 2 2 6 3 6 8 6 9 11 9 11 14 13 12 12 11 12 13 13
43 43 44 46 45 48 34 9 15 31 23 6 5 18 27 26 23 12 1 1 5 4 2 2 2 5 8 7 8 9 4 5 11 11 10 16 16 7 5 5 3 10 12 8 5 4 7 6 7 10 10 11 11 10 9 9 6 8 8 9 7 7 6 5 3 1 2 5 5 3 4 5 5 5 8 7 11 15 12 12 16 13 12 13 12 12 13 13
43 43 45 45 45 43 20 7 23 24 8 8 21 29 29 27 22 8 1 3 4 3 3 0 1 6 7 6 10 9 4 3 4 10 13 16 16 6 6 8 4 7 7 4 4 3 6 9 8 9 9 9 10 9 8 10 8 7 5 9 8 8 8 7 6 5 4 4 5 2 4 4 6 6 8 9 10 13 12 14 14 13 14 15 14 14 14 15
42 44 45 45 45 34 14 13 22 13 7 20 29 31 30 27 16 1 1 3 4 1 3 1 0 5 2 4 11 7 3 1 3 6 11 17 15 5 7 11 9 9 9 9 8 4 8 12 13 13 9 7 8 7 9 12 10 4 7 9 7 8 7 6 6 5 3 1 7 6 5 4 7 5 4 8 11 11 14 17 16 15 17 17 16 16 16 15
43 44 44 46 43 30 17 16 14 14 22 28 29 31 29 20 7 2 2 2 4 1 1 1 1 1 3 4 8 6 3 1 2 2 8 13 10 4 5 9 10 9 9 12 10 4 6 11 15 13 9 8 7 7 11 13 10 4 5 4 2 4 3 3 5 4 1 2 9 8 5 5 7 4 2 6 9 12 14 15 16 16 17 17 17 16 16 15
43 43 45 45 38 28 22 17 15 22 30 29 29 30 21 8 1 3 2 4 2 2 1 2 2 2 3 4 5 7 5 4 3 3 6 6 5 2 2 4 7 6 5 9 10 5 2 4 9 9 8 10 8 7 10 13 10 4 4 3 2 2 2 2 1 2 1 7 9 8 7 6 6 4 5 6 8 13 13 12 13 15 15 16 16 15 16 15
43 44 45 41 32 24 16 14 21 29 30 29 28 21 9 1 2 3 5 3 2 3 4 4 3 4 2 2 3 4 5 5 1 5 6 4 4 3 3 4 3 4 4 5 7 7 4 1 4 4 7 9 7 6 7 8 9 5 4 4 1 4 2 0 2 3 6 9 5 7 8 7 8 6 7 8 10 14 14 14 16 18 18 17 16 16 17 16
43 44 43 37 28 19 10 13 27 32 29 27 20 9 1 1 1 5 5 3 3 2 3 2 3 5 4 3 3 5 4 3 3 6 6 7 7 7 7 7 6 5 6 7 4 4 6 5 4 3 5 9 8 5 4 4 7 6 4 6 4 3 1 3 2 2 7 7 2 5 6 6 9 6 7 11 11 13 15 16 17 20 21 18 17 18 16 15
44 43 41 33 21 14 13 20 28 30 28 21 10 3 3 2 4 6 5 3 1 2 3 2 5 6 5 3 3 4 3 3 4 5 6 6 8 9 7 6 9 7 4 6 5 3 4 5 5 4 3 7 10 7 5 3 5 7 6 6 6 4 3 5 5 3 4 5 3 4 5 3 6 4 9 13 13 14 16 16 17 19 20 20 20 20 17 16
44 41 37 26 14 13 21 25 26 26 22 13 4 2 2 5 4 2 3 2 1 3 4 4 7 6 4 1 3 3 0 2 1 3 6 5 6 8 5 4 8 6 4 4 5 5 7 5 7 11 5 7 12 10 8 7 6 7 6 6 5 5 6 5 4 4 4 4 3 2 4 4 3 4 9 13 14 15 15 16 17 16 17 19 19 18 16 16
43 38 33 20 11 20 27 25 27 23 13 6 2 1 5 6 2 1 1 3 2 4 7 7 5 3 3 2 3 5 2 2 5 2 4 6 6 6 6 5 7 6 5 5 3 4 9 8 6 9 7 11 13 9 8 8 5 5 5 6 6 5 5 3 4 6 3 1 2 2 3 5 4 5 7 8 11 13 14 15 15 15 16 16 13 12 13 15
42 38 30 16 13 26 30 28 29 18 5 3 1 4 5 3 1 0 1 3 2 4 8 8 2 2 4 3 4 7 4 3 6 4 1 4 4 1 3 4 4 6 5 5 4 3 6 7 3 4 5 11 13 10 9 8 5 3 4 7 6 5 7 4 4 2 1 2 4 2 3 6 3 5 6 6 8 10 12 14 15 16 17 14 11 11 13 15
38 34 23 12 16 28 31 31 27 10 1 2 3 5 3 1 1 0 3 4 3 4 4 4 2 1 2 3 3 7 7 4 5 4 1 1 3 5 4 3 4 2 2 2 4 3 4 5 3 7 8 10 9 11 10 10 9 6 6 7 3 6 4 4 2 2 2 4 5 2 5 5 3 5 5 5 8 9 11 13 14 16 15 14 12 12 14 16
31 25 13 10 21 30 32 31 19 2 3 1 4 5 2 1 3 2 3 5 4 3 1 0 2 1 3 2 3 6 7 4 5 4 1 0 2 6 5 4 5 6 7 5 2 3 2 4 5 8 12 7 5 8 7 7 8 6 5 7 5 3 4 3 2 4 4 4 4 3 5 5 6 5 3 5 9 10 11 12 13 15 14 13 13 13 14 15
22 13 5 10 26 33 34 25 7 3 3 0 4 4 2 2 5 5 5 6 3 2 1 3 2 2 2 2 2 5 5 3 4 3 2 3 1 4 8 5 6 10 11 5 2 3 2 3 5 6 8 6 5 6 6 6 7 3 2 5 4 3 4 4 4 4 4 4 3 4 5 5 7 7 6 8 11 11 11 10 11 14 15 14 14 13 14 14
13 4 3 15 29 35 31 14 2 3 1 2 3 2 4 4 6 6 7 6 3 2 2 2 2 2 2 2 2 3 3 3 4 2 1 4 1 2 9 7 7 12 13 5 1 2 1 4 5 3 1 5 4 5 9 10 8 5 4 5 4 2 2 3 2 3 4 4 3 3 6 5 5 5 10 11 11 11 12 11 12 14 15 15 15 15 14 14
7 0 5 19 31 33 24 7 3 4 1 1 3 4 7 7 6 7 8 6 3 2 3 3 3 2 2 2 2 2 2 1 3 2 1 4 3 2 6 8 7 10 9 4 4 4 2 2 3 2 1 3 4 8 13 15 12 10 7 7 7 4 4 4 4 3 3 5 5 4 6 7 4 5 8 10 10 11 12 13 12 12 14 15 15 16 16 15
4 1 11 23 30 27 14 5 3 4 1 4 6 5 8 8 6 7 6 5 4 2 2 2 2 1 1 1 1 2 3 1 2 2 3 4 4 2 6 10 9 8 5 3 3 2 1 1 3 3 3 4 6 8 10 12 14 12 10 9 8 6 6 6 7 4 3 3 2 3 5 9 6 7 9 9 10 10 11 12 12 11 12 13 14 15 15 14
3 6 16 22 27 20 6 5 5 4 2 6 7 7 8 7 6 7 5 5 5 2 3 2 1 3 2 1 2 2 3 2 2 3 4 4 3 3 8 12 11 8 5 3 3 4 3 1 3 3 3 3 5 6 5 4 6 8 8 8 8 8 8 8 6 4 4 4 2 2 7 8 5 5 8 8 8 8 7 8 11 11 10 11 13 13 12 12
3 5 9 17 24 15 3 5 6 4 5 9 8 7 8 7 8 9 6 5 5 3 3 2 2 2 2 2 2 3 3 3 3 4 4 2 1 3 10 13 10 7 5 5 5 4 3 1 1 0 2 4 4 5 5 4 2 4 5 7 9 11 11 7 3 4 4 7 8 6 8 7 5 3 4 7 6 7 8 7 8 9 8 7 9 10 10 10
4 2 4 10 16 10 4 5 5 5 7 10 9 7 7 6 8 11 10 6 5 5 3 3 3 2 3 4 3 4 5 3 2 3 3 3 0 3 9 12 8 5 5 9 9 3 2 1 2 2 5 7 4 5 5 2 3 3 3 8 12 13 14 10 4 4 6 7 9 7 7 6 6 4 5 7 6 7 10 7 5 7 8 7 7 8 9 9
4 3 3 5 6 4 3 4 5 5 6 8 7 5 6 7 6 11 12 6 8 10 5 3 5 5 5 6 3 3 5 4 3 2 3 3 2 3 7 9 6 6 8 12 13 4 1 1 1 2 4 4 2 5 4 2 3 5 4 6 11 13 15 12 8 8 7 5 7 8 7 5 7 5 6 8 7 8 10 8 6 8 8 7 7 7 6 7
2 3 4 4 3 3 3 4 5 6 6 7 4 3 7 8 6 7 8 6 9 11 5 3 7 7 6 6 4 2 4 4 2 2 3 3 3 4 7 6 4 9 10 9 9 4 2 2 2 0 1 2 3 9 10 5 4 6 8 8 10 12 15 15 14 9 8 6 10 10 8 7 8 7 8 9 8 8 9 9 9 7 7 7 6 5 5 7
0 2 2 1 2 3 4 5 7 7 9 8 3 4 7 8 7 7 5 5 8 9 4 3 8 9 7 6 3 0 2 3 2 2 3 3 4 6 6 4 2 9 10 6 5 3 3 2 3 3 6 7 6 10 11 7 5 7 10 12 11 12 16 19 17 10 10 10 14 10 10 10 8 7 9 10 9 10 10 10 7 5 6 7 6 6 7 8
1 2 2 1 1 3 4 7 8 8 9 8 3 4 6 7 8 7 3 4 6 6 4 4 7 10 7 5 3 1 1 2 2 2 2 3 4 4 4 3 2 7 9 6 4 2 1 2 3 4 7 9 9 9 8 6 5 7 10 11 12 14 16 18 15 12 12 13 12 8 10 11 9 8 10 10 8 7 6 4 3 5 6 7 7 7 7 7
1 1 2 2 3 4 4 5 5 5 6 6 3 3 5 6 9 9 5 3 5 4 5 6 8 10 8 4 3 2 2 1 2 3 2 3 4 1 1 2 2 6 8 5 3 3 1 1 4 4 5 8 9 7 6 8 8 9 10 10 11 13 15 15 13 10 10 11 10 9 9 9 8 6 7 9 5 2 4 5 6 7 7 7 7 8 8 9
4 3 3 3 4 4 3 3 3 3 4 3 2 4 6 7 9 11 9 4 4 2 4 8 10 9 6 5 4 5 4 4 4 5 5 4 4 2 1 2 3 5 5 2 2 3 0 1 3 4 3 5 6 6 10 13 12 10 12 11 10 10 10 10 10 9 10 10 10 12 10 8 7 6 7 9 8 6 7 9 9 8 6 5 7 9 9 10
4 4 2 2 3 3 2 2 2 2 2 1 3 6 7 7 9 10 7 3 2 2 4 7 9 7 4 5 5 4 5 7 7 8 7 6 7 5 5 5 5 3 2 2 2 2 2 1 1 2 1 5 7 7 10 11 9 8 8 7 8 10 10 9 8 9 11 11 10 12 11 8 8 7 7 9 10 10 10 8 8 7 5 5 8 9 9 10
Wind_Direction
352 350 347 345 344 342 341 340 338 337 336 335 335 338 339 339 339 338 337 336 334 332 330 329 329 326 321 321 325 320 317 314 308 300 248 260 265 258 250 247 250 206 193 175 150 147 151 158 156 153 155 157 153 156 185 216 181 175 196 222 239 227 238 211 214 221 189 160 158 170 156 141 149 158 135 104 85 123 144 133 101 61 57 111 127 135 143 145
350 348 346 344 342 341 340 339 339 337 336 335 335 337 339 338 337 336 334 333 332 330 329 328 327 323 319 323 324 320 321 314 305 280 260 271 275 266 256 244 238 207 181 164 154 154 157 165 161 155 153 160 165 157 171 189 185 191 163 214 237 214 216 208 237 273 223 162 163 169 161 151 155 158 159 146 140 146 148 133 102 84 92 114 129 137 145 149
349 347 345 343 341 341 339 338 337 335 337 338 337 337 337 336 335 335 332 331 330 329 327 326 326 322 319 323 325 320 320 318 304 269 269 288 295 271 249 232 220 204 188 173 167 165 160 156 158 153 148 168 172 166 175 180 187 199 166 219 243 230 247 266 264 274 255 158 155 162 156 148 154 157 168 149 150 167 171 158 139 137 139 136 139 143 149 153
348 346 345 343 341 340 338 337 336 335 336 337 336 335 335 334 332 331 330 330 327 326 324 324 325 318 319 326 322 314 317 320 280 252 268 315 347 319 230 215 203 194 191 180 172 165 158 151 156 156 153 175 190 182 189 188 171 185 197 223 248 235 259 269 256 258 225 157 151 151 149 152 156 162 175 141 143 198 202 189 172 160 156 149 150 151 155 159
347 345 344 342 340 339 338 336 334 335 336 336 337 335 335 333 331 328 327 327 324 323 321 321 322 315 320 327 313 312 329 330 281 258 269 297 332 336 224 197 186 182 177 169 162 155 153 151 155 162 167 178 183 192 211 202 190 215 215 230 255 272 274 271 282 270 142 139 142 149 166 163 148 170 184 157 160 210 207 201 181 158 156 156 157 155 158 163
346 344 343 341 340 338 337 336 334 335 335 336 337 336 335 332 329 327 325 323 320 319 318 318 318 313 317 322 309 306 198 272 293 274 291 305 320 329 200 179 174 172 167 157 149 146 150 152 159 170 178 189 195 198 210 198 203 243 235 233 240 248 254 250 295 247 108 129 166 169 173 146 154 192 192 179 185 214 190 180 165 157 158 156 156 157 162 167
346 345 342 341 340 339 338 335 334 336 335 336 336 334 334 331 328 325 321 318 316 315 315 315 313 309 314 332 216 267 139 257 270 264 286 304 312 324 160 168 169 168 164 150 142 147 151 159 171 174 175 190 209 209 228 212 205 230 247 244 239 236 243 249 262 238 146 174 192 162 143 158 183 192 179 199 220 80 131 148 150 153 153 153 156 163 167 168
345 343 341 340 339 340 339 336 337 337 336 336 335 334 332 330 326 321 319 315 312 311 310 309 305 301 306 33 170 294 239 251 264 274 290 295 308 135 149 161 169 166 159 152 150 153 151 165 179 172 179 200 207 193 209 231 221 231 244 251 257 252 252 260 254 235 192 189 180 151 167 188 191 163 172 207 227 127 133 137 144 148 151 160 163 166 169 169
344 342 341 340 339 340 338 338 340 339 338 337 335 335 332 328 324 321 319 314 309 304 302 300 291 283 259 180 115 284 252 255 270 286 283 264 177 152 152 160 172 167 158 160 158 154 154 171 184 177 178 208 231 227 190 204 227 231 243 256 262 263 261 262 246 215 205 199 162 169 197 205 183 135 192 208 194 138 135 138 148 154 160 166 168 169 170 171
343 342 340 339 339 339 338 339 341 340 339 338 336 335 331 327 324 321 317 309 302 295 292 284 266 222 186 187 139 242 252 272 309 295 243 209 162 160 159 165 173 167 158 161 158 158 164 170 179 182 175 218 228 243 226 213 248 250 255 265 257 264 266 257 256 222 197 196 174 180 207 207 178 166 216 202 159 144 138 147 156 161 168 168 170 172 172 175
343 342 340 339 339 338 338 340 341 341 340 338 336 334 331 328 324 319 312 303 294 286 280 255 221 183 179 175 159 229 251 264 31 65 128 176 166 169 172 172 174 169 159 154 165 174 178 172 165 161 213 237 222 241 257 237 270 285 281 284 271 278 280 260 263 239 180 197 188 184 206 195 172 221 215 161 151 152 146 156 162 167 174 172 171 171 173 179
342 341 340 339 339 338 338 339 341 341 340 338 336 333 332 329 322 316 309 301 291 278 255 215 193 175 164 146 219 234 232 161 125 92 102 130 150 175 182 179 178 176 166 157 183 187 184 171 162 169 193 172 162 237 268 230 255 284 279 289 290 310 296 267 258 213 168 201 186 162 205 190 200 223 179 142 154 152 151 161 167 171 175 175 175 172 176 179
341 341 340 339 338 338 338 339 341 341 340 338 335 334 334 328 322 318 312 303 289 259 213 193 180 167 157 220 237 241 238 213 195 202 205 215 266 228 204 192 186 183 177 174 189 194 188 171 170 186 193 146 165 227 279 241 280 302 285 265 296 339 305 273 208 155 161 184 158 142 240 222 214 214 139 147 158 149 157 167 171 174 173 175 179 179 180 180
341 340 340 339 339 338 338 340 342 342 341 338 335 336 334 328 326 327 321 309 279 202 172 166 164 155 159 253 256 266 256 246 247 250 250 254 251 230 212 201 195 193 191 184 186 195 190 177 173 183 270 216 235 318 327 337 17 320 317 284 299 329 279 286 76 110 144 188 159 158 227 232 215 201 154 160 160 156 166 173 174 176 176 176 179 184 185 185
340 340 340 341 340 339 340 342 343 343 340 338 336 338 335 333 342 347 351 5 145 153 142 141 155 151 132 274 272 274 252 247 247 242 245 240 197 192 200 194 197 199 201 195 157 173 180 171 142 136 279 262 250 308 316 334 340 351 320 298 316 199 268 306 332 186 205 213 170 168 226 261 215 185 166 164 163 165 169 174 179 178 179 180 180 185 188 190
341 341 341 343 342 342 343 343 344 343 340 338 339 339 337 346 11 30 55 72 104 133 131 138 165 166 232 277 276 251 219 225 242 242 240 222 198 194 187 174 184 193 194 188 133 124 153 152 131 178 227 246 181 209 268 306 302 346 166 249 271 236 279 317 318 252 185 159 178 187 215 279 221 172 162 165 168 169 171 177 180 181 183 182 183 186 187 189
341 341 342 344 343 344 345 344 345 343 340 340 341 341 346 13 49 68 72 81 97 115 112 144 168 173 268 267 259 244 229 222 235 245 234 221 212 196 168 153 161 171 154 130 138 123 131 147 166 172 181 199 168 153 196 242 243 269 188 224 254 237 253 289 305 321 52 136 191 217 227 260 260 165 161 169 171 170 178 182 182 184 186 186 186 186 187 190
341 342 345 344 343 345 345 344 345 343 340 343 344 345 19 38 88 74 73 89 93 106 78 112 161 177 267 254 270 264 254 241 261 268 234 213 206 192 169 148 131 132 105 82 146 146 149 176 164 166 188 191 179 170 199 219 194 192 199 224 263 238 235 254 268 306 352 189 207 221 233 257 289 171 167 172 173 176 184 184 183 186 187 189 189 189 190 194
342 344 345 343 344 346 345 345 345 342 342 348 349 357 31 12 225 341 44 76 72 167 194 176 178 206 263 239 260 280 301 309 299 273 219 180 185 188 179 144 118 124 122 130 175 169 168 157 168 196 208 194 195 197 200 175 141 173 179 188 233 240 244 246 255 272 299 287 248 224 229 238 233 186 181 175 175 181 184 179 181 187 190 193 194 195 195 198
344 345 344 343 346 346 345 345 344 344 350 353 354 14 24 5 325 308 327 309 256 238 265 240 213 254 283 285 299 309 309 291 274 257 193 171 162 166 175 122 103 129 147 151 178 176 159 185 213 208 205 195 198 203 199 178 174 209 207 205 231 248 260 258 269 271 263 282 263 237 230 235 217 195 189 177 176 183 181 179 186 190 192 195 197 199 200 204
346 346 345 346 347 346 346 344 344 347 354 356 7 36 37 26 358 319 324 298 259 240 252 244 227 240 257 265 274 39 5 309 278 278 213 172 148 146 179 161 147 188 179 153 150 134 164 204 219 206 192 185 189 190 186 189 201 227 239 254 258 250 261 268 264 263 257 277 278 272 255 247 222 202 192 176 180 189 185 184 190 193 195 198 199 200 202 203
348 346 346 347 347 347 345 344 345 347 352 2 29 52 75 57 347 297 305 297 276 245 240 246 240 242 247 251 253 258 2 288 279 272 217 168 159 167 179 170 176 190 172 155 145 150 203 223 210 190 181 172 180 178 173 187 194 207 221 232 250 246 268 279 264 268 240 215 273 277 257 257 225 189 189 188 191 196 193 190 192 190 191 195 198 201 201 197
348 347 347 347 347 346 344 344 345 346 351 356 358 36 61 6 347 327 290 276 284 256 232 239 234 237 240 245 242 216 214 222 241 260 191 162 181 186 162 173 184 178 166 182 190 182 211 236 191 174 174 171 181 178 167 178 190 196 194 203 236 228 222 272 278 308 273 208 257 269 258 286 259 172 195 204 202 204 205 205 203 194 193 198 199 197 195 193
349 348 347 346 347 346 345 344 347 347 347 344 310 113 11 343 349 351 309 247 281 254 227 227 217 227 231 225 196 186 208 203 197 243 185 164 167 153 166 179 172 176 192 195 200 200 221 251 178 164 173 181 191 187 166 173 212 215 202 214 233 208 203 250 286 326 323 296 286 69 341 313 223 185 207 209 207 214 213 212 219 212 206 208 205 202 200 198
348 348 346 346 348 346 345 346 349 343 339 342 131 4 339 338 345 350 329 267 286 265 236 226 210 219 209 180 168 173 188 212 208 220 177 168 167 142 168 176 160 192 201 190 196 214 232 240 152 158 175 183 193 205 186 180 211 234 221 220 218 186 205 254 315 355 344 316 280 166 295 297 263 215 216 195 199 214 210 206 213 212 207 210 208 205 206 205
346 346 345 346 347 346 349 353 334 337 334 340 354 330 329 333 339 339 297 333 293 259 195 193 198 190 173 152 161 147 121 239 218 198 180 177 174 153 158 166 175 201 190 174 191 227 216 180 146 169 180 179 195 215 201 174 202 242 219 195 188 181 204 227 229 307 282 266 268 177 186 270 303 261 222 190 198 210 208 212 215 209 206 208 207 205 204 204
344 344 344 345 346 347 352 326 327 337 341 319 326 328 326 330 337 335 191 351 291 230 157 80 327 176 171 167 167 145 149 250 177 186 195 180 173 156 165 172 178 189 159 137 211 219 167 162 168 180 177 183 203 216 189 166 200 239 156 138 157 175 199 206 194 214 228 253 282 219 170 245 280 254 218 187 200 216 214 220 219 211 211 210 209 207 205 204
341 342 343 343 345 347 340 316 324 329 322 322 325 325 324 329 335 319 111 341 267 218 134 252 143 152 130 162 176 179 220 140 98 202 193 175 176 159 177 189 180 177 159 162 205 201 154 172 187 184 182 198 204 197 173 171 206 219 121 132 147 157 180 178 174 216 225 257 274 247 172 221 265 267 219 174 192 219 219 222 222 213 213 212 210 209 207 207
338 340 342 341 343 346 338 321 316 318 327 329 326 323 323 325 329 123 84 263 252 352 109 189 134 144 49 134 203 256 311 40 35 201 165 176 193 173 186 192 168 171 180 190 205 191 166 189 189 183 192 209 198 179 172 181 208 201 136 154 119 129 147 136 172 210 176 219 252 246 178 209 268 276 189 169 194 217 219 221 223 217 216 214 211 210 209 208
337 339 341 341 341 342 338 327 324 332 333 331 325 322 322 318 105 114 194 233 267 356 30 54 33 320 53 126 231 276 278 300 358 115 151 179 202 178 149 124 126 149 189 213 216 214 240 189 177 182 201 204 191 183 186 187 189 160 151 205 292 347 42 74 146 105 265 256 245 225 183 192 263 248 177 182 199 206 211 220 224 223 223 218 213 211 210 208
335 338 340 340 339 339 333 325 337 341 337 332 329 326 325 0 98 163 212 246 329 346 11 20 15 0 12 182 256 261 246 281 0 138 166 172 169 174 136 108 114 133 170 225 225 227 266 134 166 207 202 184 168 193 207 183 176 168 138 145 233 320 0 290 2 82 234 254 229 194 171 175 241 240 189 207 208 198 203 211 214 217 220 218 213 211 209 208
334 337 339 340 340 336 322 325 341 345 340 336 333 334 50 142 239 212 237 326 342 341 15 334 326 356 322 272 248 216 212 243 195 164 176 180 178 181 175 172 170 157 192 215 199 209 234 222 218 245 204 174 158 190 214 158 167 181 145 131 169 265 287 212 236 193 232 254 225 175 157 188 241 236 197 211 217 207 206 211 211 212 216 216 212 212 209 204
335 337 340 346 349 341 340 344 346 345 340 337 332 2 91 185 231 214 239 306 21 344 349 278 308 314 280 291 292 242 210 213 200 176 184 184 179 190 193 182 172 163 180 188 162 160 227 249 234 222 221 178 166 175 193 177 171 176 164 150 168 188 196 210 230 246 248 263 251 166 149 234 271 252 202 202 211 213 210 213 213 212 213 212 212 211 205 201
335 339 343 352 6 1 355 351 346 342 338 337 345 42 143 210 248 228 244 289 31 355 340 312 312 304 266 285 344 350 331 268 296 169 175 161 172 196 198 196 189 167 109 150 171 175 198 239 219 205 203 169 180 192 178 156 163 180 157 138 170 182 178 194 205 215 236 263 275 155 158 213 233 242 217 198 203 209 209 215 215 216 217 214 215 209 200 203
335 339 345 351 7 359 354 347 342 342 338 342 17 180 201 216 266 17 292 310 4 356 334 317 306 315 317 310 1 13 28 336 353 354 177 160 171 193 189 201 205 175 136 171 194 176 200 234 229 206 190 165 183 197 156 133 161 191 127 133 206 190 154 193 197 181 181 296 278 210 209 224 210 259 258 216 211 205 205 217 215 219 225 220 220 206 196 205
336 340 346 348 357 353 348 342 340 338 337 21 52 218 230 235 248 77 343 348 8 338 327 322 333 42 337 323 357 356 350 353 359 2 169 150 128 110 209 211 211 193 176 191 205 159 189 234 224 152 181 190 186 176 163 165 173 170 152 184 204 139 136 219 246 190 110 260 259 219 250 290 300 283 270 222 220 211 204 214 214 220 226 222 219 204 199 206
337 339 338 329 346 349 343 340 339 333 122 86 205 230 270 276 242 69 7 2 338 318 344 350 342 31 359 340 348 347 345 341 358 14 321 182 68 8 316 320 353 314 324 314 239 182 166 243 234 152 195 222 185 161 178 180 150 136 188 194 122 83 141 184 245 278 242 249 275 233 231 270 274 273 270 192 207 223 211 209 215 222 225 224 221 210 205 207
333 331 317 311 342 345 340 338 337 319 128 121 234 258 288 273 319 353 359 350 316 299 45 151 282 45 48 353 326 343 350 350 351 359 338 245 46 15 353 326 345 351 340 334 267 220 183 249 262 190 194 207 141 152 191 199 177 170 183 170 130 129 188 163 184 228 222 241 280 278 254 240 210 230 258 198 207 222 219 210 212 220 222 223 223 217 212 210
336 330 294 332 346 343 339 339 334 149 103 171 231 262 278 285 318 327 332 334 309 285 271 218 252 20 14 347 343 338 351 6 339 328 23 26 38 33 21 340 311 331 327 320 192 234 212 203 262 238 191 160 132 165 190 211 225 222 131 156 160 169 178 170 179 182 186 224 258 296 290 253 222 202 182 206 218 217 219 215 211 217 219 218 219 217 214 211
345 330 268 338 347 344 343 352 86 92 61 209 222 282 323 318 307 319 333 334 313 285 299 286 328 351 314 338 18 344 353 8 335 307 38 22 75 63 21 2 322 322 322 321 161 274 271 193 242 285 159 149 159 197 191 192 210 207 186 194 188 165 154 166 200 168 165 194 200 253 270 257 241 197 178 199 216 213 214 214 214 218 217 216 215 216 216 213
340 272 293 336 346 344 347 26 81 6 8 283 336 327 324 321 308 324 338 342 330 264 266 287 295 290 288 338 19 358 352 329 301 315 36 23 43 42 4 357 329 318 322 350 27 6 6 207 229 243 187 185 204 208 196 194 195 190 198 202 190 177 131 147 244 240 175 192 181 193 255 262 248 197 187 197 209 214 214 211 217 223 220 218 216 216 217 214
335 308 297 328 344 342 347 70 31 353 55 346 341 318 311 311 309 328 336 344 350 304 293 297 283 325 6 341 10 4 0 326 297 351 63 56 51 38 348 346 334 324 337 12 10 347 350 230 237 233 216 215 229 223 211 209 202 193 201 199 186 176 147 173 228 223 184 222 159 138 255 268 247 195 193 201 207 215 215 208 214 224 224 221 221 222 222 220
334 303 296 326 346 340 348 73 10 359 23 342 336 325 322 322 331 344 343 341 351 334 328 342 3 32 31 348 8 2 357 19 18 38 72 69 60 37 358 352 347 348 4 17 346 325 326 266 227 273 306 278 273 290 302 272 202 202 216 199 182 187 187 201 211 172 183 218 169 193 251 268 269 212 202 217 220 225 234 220 215 225 228 223 222 226 227 226
310 291 289 333 350 349 28 55 5 353 350 341 339 339 343 345 344 346 334 327 343 341 325 334 355 34 358 329 14 21 8 33 49 52 60 50 101 44 7 354 351 3 17 7 351 334 323 303 171 175 261 243 267 289 299 310 214 213 226 206 199 195 192 205 186 135 208 206 176 202 239 249 281 282 244 251 253 253 254 234 219 231 239 231 226 229 227 227
310 276 249 324 347 4 53 45 16 359 345 342 336 335 347 346 339 337 329 329 359 353 317 294 316 14 23 5 25 34 30 54 53 31 39 14 50 63 7 343 339 358 359 356 357 336 247 280 113 149 215 214 220 225 221 264 275 258 230 209 208 200 192 198 188 182 223 205 177 203 237 253 286 293 254 250 252 257 259 254 243 241 241 234 226 226 222 217
328 324 294 317 346 25 46 37 29 4 345 345 332 323 341 337 336 340 336 352 11 353 329 316 353 19 29 19 32 34 23 30 14 0 17 359 4 40 349 325 323 341 350 2 0 344 174 12 151 178 219 215 248 253 237 285 288 287 289 231 213 208 201 200 209 208 198 180 200 218 212 233 267 253 232 240 237 244 257 263 256 242 240 238 228 228 227 218
315 316 336 334 326 359 10 18 22 356 335 343 323 296 328 334 344 353 346 357 358 343 328 39 39 37 22 9 24 49 10 358 347 17 30 2 347 343 323 296 312 351 1 11 355 350 70 353 305 133 263 259 295 286 280 284 260 261 281 262 229 214 204 206 220 206 150 169 230 229 190 205 246 239 225 230 224 231 248 253 253 246 243 251 252 247 240 235
263 314 345 325 282 344 352 332 340 333 322 328 310 288 325 337 347 356 349 341 344 345 344 29 41 37 21 4 359 1 14 358 347 33 34 4 347 344 328 296 334 3 9 15 351 21 109 255 297 13 333 304 292 281 277 278 252 239 255 258 249 232 214 214 220 197 162 202 236 225 185 198 232 234 229 228 213 216 230 231 234 242 244 253 261 253 237 232
275 277 307 337 278 312 308 300 313 318 317 326 321 311 334 337 334 340 350 331 329 352 12 1 8 10 4 4 0 327 29 24 353 357 12 359 354 352 330 312 339 6 8 5 345 8 123 259 315 355 329 308 293 279 274 280 279 267 262 257 254 247 232 226 224 206 198 222 241 221 187 197 218 219 223 230 215 210 228 224 205 226 240 248 258 261 252 238
257 271 306 318 283 279 278 283 301 308 315 327 321 323 344 333 325 331 335 307 296 329 11 359 348 349 342 341 337 279 272 347 315 291 305 338 338 323 277 299 328 355 356 347 325 336 33 312 330 359 343 306 295 298 302 302 299 286 272 262 257 257 250 241 233 216 212 226 239 234 206 210 239 243 238 251 263 289 286 268 243 236 237 238 245 253 250 239
262 279 287 291 295 301 290 282 302 305 309 328 328 339 342 328 324 327 318 280 237 261 357 345 332 332 325 314 301 278 294 324 294 276 284 284 270 251 249 288 330 346 340 311 316 337 352 279 340 24 9 293 292 325 325 317 313 289 267 262 257 251 252 250 234 214 210 211 223 236 229 225 246 253 256 267 281 281 260 253 251 253 258 253 245 245 245 241
269 285 265 261 293 306 295 292 305 291 285 320 324 328 327 312 313 319 313 295 257 289 342 336 322 320 312 301 298 292 311 317 296 283 280 260 247 245 247 254 261 265 258 280 322 300 221 203 341 29 15 285 288 314 324 321 314 282 262 263 252 235 233 245 245 229 216 203 209 228 227 216 212 209 227 252 256 252 247 244 246 254 269 264 250 250 253 253